Location: Betzi
(47.2343°N, 9.5260°E)
Time: 16:30:25
(UTC+00:00)

CZ-2D R/B - Pass Details

Date: 27 May 2022
Orbit: 790 x 845 km, 98.7° (Epoch: 06 July)

Event Time Altitude Azimuth Distance (km) Brightness Sun altitude
Rises 00:30:32 0° 19° (NNE) 3,378 7.0 -19.6°
Reaches altitude 10° 00:33:01 10° 26° (NNE) 2,432 5.8 -19.5°
Maximum altitude 00:38:09 44° 98° (E) 1,124 2.9 -19.2°
Enters shadow 00:40:54 24° 156° (SSE) 1,610 3.3 -19.1°
